SCP
0 0 0 0 0 0 0 0 0 0 0 0 0 0 -0 -0 0 0 0 -0 -0 -0 0 -0 0 0 0 0 0 0 0 0 0 0 0 0 0 0 0 0 0 0 0 0 0 0 -0 0 0
0 0 0 0 0 0 0 0 0 0 0 0 0 0 0 0 0 -0 -0 -0 -0 0 0 -0 0 0 0 0 0 0 0 0 0 0 0 0 0 0 0 0 0 0 0 0 0 0 0 0 0
0 0 0 0 0 0 0 0 0 0 0 0 0 0 0 0 -0 -0 -0 -0 0 0 0 0 0 0 0 0 0 0 0 0 0 0 0 0 0 0 0 0 0 0 0 0 0 0 0 0 0
0 0 0 0 0 0 0 0 0 0 0 0 0 0 0 0 0 0 -0 0 0 0 0 0 0 0 0 0 0 0 1 1 1 1 0 0 0 0 0 0 0 0 0 0 0 0 0 0 0
0 0 0 0 0 0 0 0 0 0 0 0 0 0 0 0 0 -0 -0 0 0 0 0 0 0 0 0 0 0 0 0 0 1 1 1 0 0 1 1 1 0 0 0 0 0 0 0 0 0
0 0 0 0 0 0 0 0 0 0 0 0 0 0 0 0 0 0 0 0 0 0 0 0 0 0 0 0 0 0 0 0 0 0 0 0 0 0 0 0 0 0 0 0 0 0 0 0 0
0 0 0 0 0 0 0 0 0 0 0 0 0 0 0 0 0 0 0 0 0 0 0 0 0 0 0 0 0 0 0 0 0 0 0 0 0 0 0 0 0 0 0 0 1 0 0 1 0
0 0 0 0 0 0 0 0 0 0 0 0 0 0 0 0 0 0 0 0 0 0 0 0 0 0 0 0 0 0 0 0 0 0 0 0 0 0 0 0 0 0 0 0 0 0 0 0 0
0 0 0 0 0 0 0 0 0 0 0 0 0 0 0 0 0 0 0 0 0 0 0 0 0 0 0 0 0 0 0 0 0 0 0 0 0 0 0 0 0 0 0 0 0 0 1 1 1
0 0 0 0 0 0 0 0 0 0 0 0 0 0 0 0 0 0 0 0 0 0 0 0 0 0 0 0 0 0 0 0 0 0 0 0 0 0 0 0 0 0 0 0 0 0 0 0 0
0 0 0 0 0 0 0 0 0 0 0 0 0 0 0 0 0 0 0 0 0 0 0 0 0 0 0 0 0 0 0 0 0 0 0 0 0 0 0 0 0 0 0 0 0 0 0 0 0
0 0 0 0 0 0 0 0 0 0 0 0 0 0 0 0 0 0 0 0 0 0 0 0 0 0 0 0 0 0 0 0 0 0 0 0 0 0 0 0 0 0 0 0 0 -0 0 0 0
0 0 0 0 0 0 0 0 0 0 0 0 0 0 0 0 0 0 0 0 0 0 0 0 0 0 0 0 0 0 0 0 0 0 0 0 0 0 0 0 0 0 -0 0 0 0 -0 -0 0
0 0 0 0 0 0 0 0 0 0 0 0 0 0 0 0 0 0 0 0 0 0 0 0 0 0 0 0 0 0 0 0 0 0 0 0 0 0 0 0 0 0 0 0 0 -0 -0 -0 0
0 0 0 0 0 0 0 0 0 0 0 0 0 0 0 0 0 0 0 0 0 0 0 0 0 0 0 0 0 0 0 0 0 0 0 0 0 0 0 0 0 0 0 -0 -0 -0 0 -0 -0
0 0 0 0 0 0 0 0 0 0 0 0 0 0 0 0 0 0 0 0 0 0 0 0 0 0 0 0 0 0 0 0 0 0 0 0 0 0 0 0 0 0 0 -0 -0 -0 -0 -0 -0
0 0 0 0 0 0 0 0 0 0 0 0 0 0 0 0 0 0 0 0 0 0 0 0 0 0 0 0 0 0 0 0 0 0 0 0 0 0 0 0 0 0 0 0 0 -0 -0 -0 0
0 0 0 0 0 0 0 0 0 0 0 0 0 0 0 0 0 0 0 0 0 0 0 0 0 0 0 0 0 0 0 0 0 0 0 0 0 0 0 0 0 0 0 0 0 -0 -0 -0 0
0 0 0 0 0 0 0 0 0 0 0 0 0 0 0 0 0 0 0 0 0 0 0 0 0 0 0 0 0 0 0 0 0 0 0 0 0 0 0 0 0 0 0 0 0 0 0 0 0
0 0 0 0 0 0 0 0 0 0 0 0 0 0 0 0 0 0 0 0 0 0 0 0 0 0 0 0 0 0 0 0 0 0 0 0 0 0 0 0 0 0 0 0 0 0 0 0 0
0 0 0 0 0 0 0 0 0 0 0 0 0 0 0 0 0 0 0 0 0 0 0 0 0 0 0 0 0 0 0 0 0 0 0 0 0 0 0 0 0 0 0 0 0 0 0 0 0
0 0 0 0 0 0 0 0 0 0 0 0 0 0 0 0 0 0 0 0 0 0 0 0 0 0 0 0 0 0 0 0 0 0 0 0 0 0 0 0 0 0 0 0 0 0 0 0 0
0 0 0 0 0 0 0 0 0 0 0 0 0 0 0 0 0 0 0 0 0 0 0 0 0 0 0 0 0 0 0 0 0 0 0 0 0 0 0 0 0 0 0 0 0 0 0 0 0
0 0 0 0 0 0 0 0 0 0 0 0 0 0 0 0 0 0 0 0 0 0 0 0 0 0 0 0 0 0 0 0 0 0 0 0 0 0 0 0 0 0 0 0 0 0 0 0 0
0 0 0 0 0 0 0 0 0 0 0 0 0 0 0 0 0 0 0 0 0 0 0 0 0 0 0 0 0 0 0 0 0 0 0 0 0 0 0 0 0 0 0 0 0 0 0 0 0
0 0 0 0 0 0 0 0 0 0 0 0 0 0 0 0 0 0 0 0 0 0 0 0 0 0 0 0 0 0 0 0 0 0 0 0 0 0 0 0 0 0 0 0 0 0 0 0 0
0 0 0 0 0 0 0 0 0 0 0 0 0 0 0 0 0 0 0 0 0 0 0 0 0 0 0 0 0 0 0 0 0 0 0 0 0 0 0 0 0 0 0 0 0 0 0 0 0
0 0 0 0 0 0 0 0 0 0 0 0 0 0 0 0 0 0 0 0 0 0 0 0 0 0 0 0 0 0 0 0 0 0 0 0 0 0 0 0 0 0 0 0 0 0 0 0 0
0 0 0 0 0 0 0 0 0 0 0 0 0 0 0 0 0 0 0 0 0 0 0 0 0 0 0 0 0 0 0 0 0 0 0 0 0 0 0 0 0 0 0 0 0 0 0 0 0
0 0 0 0 0 0 0 0 0 0 0 0 0 0 0 0 0 0 0 0 0 0 0 0 0 0 0 0 0 0 0 0 0 0 0 0 0 0 0 0 0 0 0 0 0 0 0 0 0
Wind_Speed_500mb
15 12 7 3 9 10 6 8 3 10 9 9 8 14 18 22 15 9 8 12 11 9 9 15 15 11 9 10 12 16 18 19 21 22 24 24 25 24 24 23 22 18 16 17 19 20 21 20 18
5 2 2 6 11 15 12 8 11 10 9 5 6 2 4 11 15 11 6 14 9 9 8 11 14 11 9 9 11 14 17 21 24 25 27 27 28 28 28 27 25 23 20 20 20 20 21 21 21
3 6 3 6 10 8 8 7 14 12 8 2 4 9 4 8 9 6 9 12 11 10 11 20 14 13 13 12 12 13 15 19 22 26 29 29 32 32 31 32 31 28 27 25 25 28 26 24 23
5 0 4 10 2 6 10 12 11 12 5 6 4 7 7 6 2 7 11 11 11 10 12 19 15 15 13 12 13 14 15 17 20 24 24 29 33 34 34 36 35 36 34 32 27 31 30 28 25
5 3 8 7 4 6 7 10 5 7 6 4 5 6 2 3 5 10 13 15 15 14 15 15 22 19 19 19 20 20 22 24 25 26 28 30 31 37 39 39 40 41 42 41 35 34 39 37 34
6 4 9 14 8 7 7 5 6 5 4 3 4 4 3 9 8 13 18 20 20 19 20 17 26 25 25 27 29 30 30 31 31 30 30 31 32 34 40 43 43 47 44 45 46 40 41 45 43
6 7 8 4 8 10 7 5 8 1 3 3 3 7 3 7 13 19 18 16 16 16 17 18 19 25 29 33 34 34 33 31 31 31 32 31 34 36 36 44 52 53 56 51 47 51 44 47 47
1 5 6 6 12 7 9 7 2 4 3 3 3 4 4 3 17 15 14 15 17 17 18 20 21 21 22 22 36 34 35 33 29 29 31 33 35 33 37 36 40 52 64 59 57 55 52 48 50
4 7 10 4 7 10 11 8 4 2 7 7 6 6 3 13 15 12 13 13 13 15 17 18 19 20 20 20 29 29 29 28 27 28 28 31 29 33 34 35 37 40 46 62 64 58 53 45 51
7 6 4 10 7 8 10 5 2 6 11 13 9 7 3 10 10 12 13 12 15 17 19 20 20 17 13 12 12 13 16 9 8 9 16 15 33 37 37 38 37 41 39 48 51 62 50 41 38
3 5 8 5 4 1 4 9 8 9 12 9 8 8 6 6 6 10 10 11 13 16 18 21 21 17 11 4 5 7 8 6 8 12 15 16 18 25 29 33 41 45 42 47 33 27 7 39 36
7 5 3 6 2 2 6 8 11 19 7 7 7 0 6 3 4 5 4 7 12 15 18 19 20 17 8 3 3 5 6 5 11 12 13 14 16 22 22 30 40 48 47 35 42 36 46 7 38
5 9 5 5 4 11 12 16 16 18 15 12 6 6 3 2 3 2 3 8 10 13 18 20 20 15 10 4 3 2 5 8 7 13 19 18 16 18 21 24 33 47 49 28 26 35 36 49 6
7 9 5 5 8 7 9 9 7 5 11 23 14 5 3 2 5 3 2 4 8 12 17 20 17 14 10 5 3 3 4 9 13 14 16 19 17 18 20 22 27 41 45 30 33 28 32 62 24
9 6 5 9 6 3 8 13 14 7 14 22 13 10 8 6 5 4 5 3 6 11 16 19 20 14 11 10 7 6 9 12 12 13 14 16 19 21 20 19 19 34 30 17 20 18 12 18 19
7 4 6 11 4 5 7 7 12 15 16 18 9 12 9 6 5 4 4 2 5 8 13 17 19 17 11 10 11 10 11 9 12 12 15 17 19 21 19 17 17 27 30 17 16 18 17 12 10
11 8 11 10 4 4 12 7 13 12 13 20 25 9 7 5 7 3 1 3 5 7 9 14 16 14 13 12 13 12 11 11 14 17 18 19 20 19 18 15 18 21 21 24 24 16 14 6 10
3 9 6 8 7 9 18 25 7 14 19 24 18 17 10 8 6 3 3 3 4 7 8 11 13 14 13 14 15 15 15 16 19 18 16 19 19 20 21 15 18 19 18 16 20 17 23 12 19
3 5 7 2 5 9 13 18 18 9 5 14 22 19 14 10 7 6 3 2 4 6 8 8 11 14 14 13 12 11 14 18 17 19 21 21 22 20 22 21 20 23 18 19 21 16 15 14 17
2 7 4 1 2 9 17 27 15 7 10 16 18 17 15 13 9 7 6 6 7 6 6 7 11 13 15 15 17 20 23 24 27 26 24 22 22 27 27 27 23 21 31 24 18 16 17 12 10
3 9 8 10 20 12 18 16 16 14 16 15 13 14 13 11 9 6 6 5 4 2 4 7 11 14 16 18 19 19 17 19 18 21 25 25 26 25 27 26 26 25 23 27 29 28 23 20 22
6 6 8 14 15 8 6 8 19 22 19 19 19 17 12 10 9 9 9 7 4 4 5 7 10 12 15 17 17 18 16 18 21 24 27 28 25 26 26 28 27 28 27 24 22 22 29 23 22
9 6 9 8 14 15 15 8 13 21 21 23 24 17 12 10 10 11 10 9 9 9 8 7 9 12 14 14 15 15 16 17 20 22 26 25 25 23 23 26 28 27 29 28 26 25 23 26 26
1 7 7 4 5 8 11 7 14 14 25 26 23 17 13 11 11 10 9 8 7 7 7 8 10 12 13 14 15 16 17 19 20 23 25 28 28 30 29 29 29 27 25 26 30 29 27 26 28
5 8 5 4 5 4 7 8 14 12 6 7 20 16 14 12 10 8 6 3 2 5 7 9 10 11 11 12 12 14 16 18 21 25 29 32 33 34 36 38 36 35 34 33 32 34 35 33 33
5 5 5 8 8 12 7 11 5 12 8 12 15 14 11 9 5 4 1 3 6 9 9 7 6 7 7 9 14 18 21 24 26 29 32 35 38 40 42 43 43 42 40 39 39 39 37 36 38
7 6 4 7 6 8 11 9 14 12 15 20 20 19 15 12 9 6 5 10 12 12 14 12 9 10 13 14 15 17 21 26 32 36 40 42 44 46 49 50 49 48 47 46 44 43 42 40 41
7 3 5 6 7 10 14 13 11 12 13 13 16 17 10 7 6 7 13 19 21 21 22 20 17 16 15 18 20 23 27 30 35 40 43 45 47 49 50 51 52 53 54 54 52 51 48 45 44
6 5 6 6 8 7 10 4 10 10 1 17 20 19 8 4 11 17 21 22 19 22 22 20 17 16 17 23 28 33 37 41 42 43 44 47 51 51 52 52 53 54 54 54 54 54 55 51 50
6 10 17 9 10 8 7 12 4 8 9 11 15 16 14 23 33 37 33 28 24 19 15 13 15 18 23 31 38 43 48 47 45 45 47 50 53 53 53 54 55 54 53 53 55 56 53 55 56
Wind_Direction_500mb
286 302 311 332 245 235 143 98 115 121 132 51 41 19 60 34 10 34 106 46 32 27 14 347 331 349 343 313 301 289 288 289 289 291 291 289 291 293 292 292 295 289 277 264 247 245 244 241 236
292 275 77 282 258 213 125 142 121 82 71 85 93 56 55 82 53 81 173 1 19 356 358 295 306 323 326 320 312 299 296 297 295 292 290 288 285 285 286 286 286 285 274 269 253 246 245 242 242
142 140 234 267 257 283 96 131 120 110 81 147 132 33 28 63 47 69 347 350 340 324 333 295 303 316 320 323 324 321 312 307 302 296 293 291 288 283 277 275 278 275 270 270 253 248 250 247 247
123 99 249 249 211 50 84 121 114 148 120 70 13 123 95 65 80 12 351 344 333 315 314 305 300 304 305 309 312 313 311 307 297 293 298 286 281 284 279 273 268 267 267 264 260 249 242 244 251
98 227 233 238 163 123 88 99 146 169 116 106 354 90 85 84 84 350 341 335 322 313 304 308 296 292 294 296 300 303 308 309 308 303 296 290 289 279 279 278 274 265 261 261 256 248 245 248 249
201 261 245 217 159 141 125 143 192 228 140 110 240 292 134 155 347 326 325 323 307 304 302 304 304 293 284 282 286 290 297 301 303 304 304 302 297 286 278 273 275 274 261 256 252 252 249 247 244
279 249 244 265 169 175 159 181 216 323 254 144 350 274 78 190 331 311 323 337 339 320 310 302 296 296 303 280 280 288 295 300 306 312 314 315 312 309 298 282 275 271 270 264 251 250 253 251 245
298 267 228 224 193 153 140 166 120 256 64 355 276 248 165 262 316 327 339 339 328 323 320 313 305 295 286 287 288 290 296 300 311 323 326 325 321 318 311 309 297 282 274 267 259 247 248 253 245
144 235 253 197 209 113 152 194 161 216 265 254 228 269 289 309 319 347 348 342 356 357 346 335 319 297 291 281 284 295 298 301 309 324 332 334 337 333 325 317 314 309 283 271 265 253 247 245 245
242 252 31 18 54 129 148 222 185 259 215 243 227 222 321 334 340 350 354 357 2 3 2 358 345 333 308 280 283 300 313 324 336 346 348 344 325 319 320 323 317 318 293 267 275 255 235 233 247
141 314 115 115 97 97 220 231 224 249 249 220 233 189 297 339 338 347 359 13 11 3 358 1 359 355 357 300 277 309 322 332 335 338 341 337 338 329 333 338 337 339 315 268 277 251 73 212 219
169 103 91 141 123 242 244 284 250 231 271 141 144 62 289 287 334 342 343 356 1 3 2 2 6 9 12 52 338 296 334 316 319 318 340 337 336 326 329 336 345 340 333 290 258 281 321 11 216
161 148 154 153 235 267 270 259 268 252 221 192 158 5 282 210 322 319 315 351 355 353 359 5 1 7 14 18 41 337 307 324 311 332 326 330 320 319 317 321 329 338 342 295 283 258 272 314 63
122 143 164 232 221 242 260 259 297 169 200 199 184 23 38 298 308 285 290 317 344 353 1 5 360 350 355 344 313 340 333 331 328 322 312 332 324 312 315 318 307 329 336 311 288 280 257 315 336
142 176 170 206 206 251 295 246 233 178 148 165 195 296 287 259 254 226 242 278 339 352 2 5 3 358 352 348 332 331 322 324 318 319 318 320 316 316 313 313 307 313 331 342 39 24 86 291 349
210 225 225 138 256 178 275 104 127 166 179 201 214 312 243 244 201 224 234 290 333 350 359 7 12 11 3 355 343 327 323 321 320 320 320 319 317 313 317 319 306 298 317 301 295 288 332 300 307
201 251 212 167 166 294 234 325 122 187 220 249 255 278 192 193 184 204 334 282 317 331 358 1 10 15 6 355 351 347 331 328 318 321 317 311 322 320 319 311 303 301 299 297 308 296 261 240 295
182 234 198 266 103 260 257 265 272 287 288 265 244 178 161 169 194 199 230 275 325 349 349 356 0 353 359 355 350 340 331 324 318 318 316 321 321 316 317 315 306 306 306 305 292 294 321 308 243
15 281 279 110 59 297 254 276 285 339 248 174 158 158 155 151 134 115 96 26 17 1 341 344 339 345 343 339 338 328 319 326 321 308 314 318 311 318 316 316 314 305 304 301 311 306 286 268 285
342 293 270 194 88 300 294 285 296 181 128 148 156 153 162 156 147 119 105 79 70 52 357 333 328 336 339 335 327 321 317 314 311 318 320 320 318 312 312 306 304 304 308 314 304 304 310 310 284
62 312 11 321 319 245 296 252 164 169 162 156 160 157 160 165 157 135 119 92 68 28 348 342 341 341 336 333 330 327 328 323 318 304 315 315 319 318 319 314 310 308 304 309 311 318 322 310 308
249 33 330 315 326 307 1 297 185 167 179 183 170 174 170 160 134 113 109 81 61 45 26 8 355 351 345 339 335 331 331 323 314 319 321 325 322 317 315 316 317 314 313 308 303 305 309 306 305
50 353 317 313 292 312 184 246 112 168 197 193 183 176 164 147 131 110 101 94 85 75 65 40 15 3 358 356 355 353 346 339 337 331 334 333 333 333 328 320 318 315 310 305 298 295 291 289 290
87 275 257 275 273 251 130 240 182 180 217 192 177 178 155 132 119 108 103 86 59 51 38 16 1 356 347 343 346 347 347 348 347 347 348 345 345 343 339 333 327 321 315 309 302 288 278 273 275
264 285 299 233 215 288 95 261 285 84 56 185 170 169 151 139 131 123 120 97 13 354 348 335 328 330 333 342 348 351 350 347 346 344 341 339 338 336 335 333 332 329 322 314 306 299 292 281 267
4 339 300 281 310 334 155 244 98 72 99 112 144 151 143 131 126 135 197 296 308 314 310 320 316 325 332 340 342 341 339 339 338 335 333 332 329 326 325 324 322 320 318 316 311 304 296 287 278
129 217 62 288 204 261 243 220 140 164 165 167 161 162 160 168 172 191 255 272 265 262 269 268 282 301 312 317 324 328 329 331 329 327 323 318 316 314 314 313 313 312 311 310 306 301 297 289 279
272 78 194 205 256 254 224 242 271 191 189 187 178 172 141 77 24 311 284 279 271 264 265 264 273 288 302 315 322 322 323 322 320 318 316 314 313 313 312 312 311 312 312 311 308 304 297 289 285
152 212 225 302 282 289 305 293 47 76 187 206 208 186 180 315 321 313 290 277 264 260 260 263 276 291 304 317 321 321 320 320 318 316 313 310 310 310 308 308 308 311 312 312 308 304 301 294 285
300 250 234 230 185 238 282 277 79 60 54 351 263 199 261 297 309 307 295 281 263 258 258 270 287 297 305 314 318 319 318 316 313 310 308 308 308 307 308 307 307 307 309 311 310 307 302 296 293
Wind_Speed_850mb
15 12 7 3 9 10 6 8 3 10 9 9 8 14 18 22 15 9 8 12 11 9 9 15 15 11 9 10 12 16 18 19 21 22 24 24 25 24 24 23 22 18 16 17 19 20 21 20 18
5 2 2 6 11 15 12 8 11 10 9 5 6 2 4 11 15 11 6 14 9 9 8 11 14 11 9 9 11 14 17 21 24 25 27 27 28 28 28 27 25 23 20 20 20 20 21 21 21
3 6 3 6 10 8 8 7 14 12 8 2 4 9 4 8 9 6 9 12 11 10 11 20 14 13 13 12 12 13 15 19 22 26 29 29 32 32 31 32 31 28 27 25 25 28 26 24 23
5 0 4 10 2 6 10 12 11 12 5 6 4 7 7 6 2 7 11 11 11 10 12 19 15 15 13 12 13 14 15 17 20 24 24 29 33 34 34 36 35 36 34 32 27 31 30 28 25
5 3 8 7 4 6 7 10 5 7 6 4 5 6 2 3 5 10 13 15 15 14 15 15 22 19 19 19 20 20 22 24 25 26 28 30 31 37 39 39 40 41 42 41 35 34 39 37 34
6 4 9 14 8 7 7 5 6 5 4 3 4 4 3 9 8 13 18 20 20 19 20 17 26 25 25 27 29 30 30 31 31 30 30 31 32 34 40 43 43 47 44 45 46 40 41 45 43
6 7 8 4 8 10 7 5 8 1 3 3 3 7 3 7 13 19 18 16 16 16 17 18 19 25 29 33 34 34 33 31 31 31 32 31 34 36 36 44 52 53 56 51 47 51 44 47 47
1 5 6 6 12 7 9 7 2 4 3 3 3 4 4 3 17 15 14 15 17 17 18 20 21 21 22 22 36 34 35 33 29 29 31 33 35 33 37 36 40 52 64 59 57 55 52 48 50
4 7 10 4 7 10 11 8 4 2 7 7 6 6 3 13 15 12 13 13 13 15 17 18 19 20 20 20 29 29 29 28 27 28 28 31 29 33 34 35 37 40 46 62 64 58 53 45 51
7 6 4 10 7 8 10 5 2 6 11 13 9 7 3 10 10 12 13 12 15 17 19 20 20 17 13 12 12 13 16 9 8 9 16 15 33 37 37 38 37 41 39 48 51 62 50 41 38
3 5 8 5 4 1 4 9 8 9 12 9 8 8 6 6 6 10 10 11 13 16 18 21 21 17 11 4 5 7 8 6 8 12 15 16 18 25 29 33 41 45 42 47 33 27 7 39 36
7 5 3 6 2 2 6 8 11 19 7 7 7 0 6 3 4 5 4 7 12 15 18 19 20 17 8 3 3 5 6 5 11 12 13 14 16 22 22 30 40 48 47 35 42 36 46 7 38
5 9 5 5 4 11 12 16 16 18 15 12 6 6 3 2 3 2 3 8 10 13 18 20 20 15 10 4 3 2 5 8 7 13 19 18 16 18 21 24 33 47 49 28 26 35 36 49 6
7 9 5 5 8 7 9 9 7 5 11 23 14 5 3 2 5 3 2 4 8 12 17 20 17 14 10 5 3 3 4 9 13 14 16 19 17 18 20 22 27 41 45 30 33 28 32 62 24
9 6 5 9 6 3 8 13 14 7 14 22 13 10 8 6 5 4 5 3 6 11 16 19 20 14 11 10 7 6 9 12 12 13 14 16 19 21 20 19 19 34 30 17 20 18 12 18 19
7 4 6 11 4 5 7 7 12 15 16 18 9 12 9 6 5 4 4 2 5 8 13 17 19 17 11 10 11 10 11 9 12 12 15 17 19 21 19 17 17 27 30 17 16 18 17 12 10
11 8 11 10 4 4 12 7 13 12 13 20 25 9 7 5 7 3 1 3 5 7 9 14 16 14 13 12 13 12 11 11 14 17 18 19 20 19 18 15 18 21 21 24 24 16 14 6 10
3 9 6 8 7 9 18 25 7 14 19 24 18 17 10 8 6 3 3 3 4 7 8 11 13 14 13 14 15 15 15 16 19 18 16 19 19 20 21 15 18 19 18 16 20 17 23 12 19
3 5 7 2 5 9 13 18 18 9 5 14 22 19 14 10 7 6 3 2 4 6 8 8 11 14 14 13 12 11 14 18 17 19 21 21 22 20 22 21 20 23 18 19 21 16 15 14 17
2 7 4 1 2 9 17 27 15 7 10 16 18 17 15 13 9 7 6 6 7 6 6 7 11 13 15 15 17 20 23 24 27 26 24 22 22 27 27 27 23 21 31 24 18 16 17 12 10
3 9 8 10 20 12 18 16 16 14 16 15 13 14 13 11 9 6 6 5 4 2 4 7 11 14 16 18 19 19 17 19 18 21 25 25 26 25 27 26 26 25 23 27 29 28 23 20 22
6 6 8 14 15 8 6 8 19 22 19 19 19 17 12 10 9 9 9 7 4 4 5 7 10 12 15 17 17 18 16 18 21 24 27 28 25 26 26 28 27 28 27 24 22 22 29 23 22
9 6 9 8 14 15 15 8 13 21 21 23 24 17 12 10 10 11 10 9 9 9 8 7 9 12 14 14 15 15 16 17 20 22 26 25 25 23 23 26 28 27 29 28 26 25 23 26 26
1 7 7 4 5 8 11 7 14 14 25 26 23 17 13 11 11 10 9 8 7 7 7 8 10 12 13 14 15 16 17 19 20 23 25 28 28 30 29 29 29 27 25 26 30 29 27 26 28
5 8 5 4 5 4 7 8 14 12 6 7 20 16 14 12 10 8 6 3 2 5 7 9 10 11 11 12 12 14 16 18 21 25 29 32 33 34 36 38 36 35 34 33 32 34 35 33 33
5 5 5 8 8 12 7 11 5 12 8 12 15 14 11 9 5 4 1 3 6 9 9 7 6 7 7 9 14 18 21 24 26 29 32 35 38 40 42 43 43 42 40 39 39 39 37 36 38
7 6 4 7 6 8 11 9 14 12 15 20 20 19 15 12 9 6 5 10 12 12 14 12 9 10 13 14 15 17 21 26 32 36 40 42 44 46 49 50 49 48 47 46 44 43 42 40 41
7 3 5 6 7 10 14 13 11 12 13 13 16 17 10 7 6 7 13 19 21 21 22 20 17 16 15 18 20 23 27 30 35 40 43 45 47 49 50 51 52 53 54 54 52 51 48 45 44
6 5 6 6 8 7 10 4 10 10 1 17 20 19 8 4 11 17 21 22 19 22 22 20 17 16 17 23 28 33 37 41 42 43 44 47 51 51 52 52 53 54 54 54 54 54 55 51 50
6 10 17 9 10 8 7 12 4 8 9 11 15 16 14 23 33 37 33 28 24 19 15 13 15 18 23 31 38 43 48 47 45 45 47 50 53 53 53 54 55 54 53 53 55 56 53 55 56
Wind_Direction_850mb
286 302 311 332 245 235 143 98 115 121 132 51 41 19 60 34 10 34 106 46 32 27 14 347 331 349 343 313 301 289 288 289 289 291 291 289 291 293 292 292 295 289 277 264 247 245 244 241 236
292 275 77 282 258 213 125 142 121 82 71 85 93 56 55 82 53 81 173 1 19 356 358 295 306 323 326 320 312 299 296 297 295 292 290 288 285 285 286 286 286 285 274 269 253 246 245 242 242
142 140 234 267 257 283 96 131 120 110 81 147 132 33 28 63 47 69 347 350 340 324 333 295 303 316 320 323 324 321 312 307 302 296 293 291 288 283 277 275 278 275 270 270 253 248 250 247 247
123 99 249 249 211 50 84 121 114 148 120 70 13 123 95 65 80 12 351 344 333 315 314 305 300 304 305 309 312 313 311 307 297 293 298 286 281 284 279 273 268 267 267 264 260 249 242 244 251
98 227 233 238 163 123 88 99 146 169 116 106 354 90 85 84 84 350 341 335 322 313 304 308 296 292 294 296 300 303 308 309 308 303 296 290 289 279 279 278 274 265 261 261 256 248 245 248 249
201 261 245 217 159 141 125 143 192 228 140 110 240 292 134 155 347 326 325 323 307 304 302 304 304 293 284 282 286 290 297 301 303 304 304 302 297 286 278 273 275 274 261 256 252 252 249 247 244
279 249 244 265 169 175 159 181 216 323 254 144 350 274 78 190 331 311 323 337 339 320 310 302 296 296 303 280 280 288 295 300 306 312 314 315 312 309 298 282 275 271 270 264 251 250 253 251 245
298 267 228 224 193 153 140 166 120 256 64 355 276 248 165 262 316 327 339 339 328 323 320 313 305 295 286 287 288 290 296 300 311 323 326 325 321 318 311 309 297 282 274 267 259 247 248 253 245
144 235 253 197 209 113 152 194 161 216 265 254 228 269 289 309 319 347 348 342 356 357 346 335 319 297 291 281 284 295 298 301 309 324 332 334 337 333 325 317 314 309 283 271 265 253 247 245 245
242 252 31 18 54 129 148 222 185 259 215 243 227 222 321 334 340 350 354 357 2 3 2 358 345 333 308 280 283 300 313 324 336 346 348 344 325 319 320 323 317 318 293 267 275 255 235 233 247
141 314 115 115 97 97 220 231 224 249 249 220 233 189 297 339 338 347 359 13 11 3 358 1 359 355 357 300 277 309 322 332 335 338 341 337 338 329 333 338 337 339 315 268 277 251 73 212 219
169 103 91 141 123 242 244 284 250 231 271 141 144 62 289 287 334 342 343 356 1 3 2 2 6 9 12 52 338 296 334 316 319 318 340 337 336 326 329 336 345 340 333 290 258 281 321 11 216
161 148 154 153 235 267 270 259 268 252 221 192 158 5 282 210 322 319 315 351 355 353 359 5 1 7 14 18 41 337 307 324 311 332 326 330 320 319 317 321 329 338 342 295 283 258 272 314 63
122 143 164 232 221 242 260 259 297 169 200 199 184 23 38 298 308 285 290 317 344 353 1 5 360 350 355 344 313 340 333 331 328 322 312 332 324 312 315 318 307 329 336 311 288 280 257 315 336
142 176 170 206 206 251 295 246 233 178 148 165 195 296 287 259 254 226 242 278 339 352 2 5 3 358 352 348 332 331 322 324 318 319 318 320 316 316 313 313 307 313 331 342 39 24 86 291 349
210 225 225 138 256 178 275 104 127 166 179 201 214 312 243 244 201 224 234 290 333 350 359 7 12 11 3 355 343 327 323 321 320 320 320 319 317 313 317 319 306 298 317 301 295 288 332 300 307
201 251 212 167 166 294 234 325 122 187 220 249 255 278 192 193 184 204 334 282 317 331 358 1 10 15 6 355 351 347 331 328 318 321 317 311 322 320 319 311 303 301 299 297 308 296 261 240 295
182 234 198 266 103 260 257 265 272 287 288 265 244 178 161 169 194 199 230 275 325 349 349 356 0 353 359 355 350 340 331 324 318 318 316 321 321 316 317 315 306 306 306 305 292 294 321 308 243
15 281 279 110 59 297 254 276 285 339 248 174 158 158 155 151 134 115 96 26 17 1 341 344 339 345 343 339 338 328 319 326 321 308 314 318 311 318 316 316 314 305 304 301 311 306 286 268 285
342 293 270 194 88 300 294 285 296 181 128 148 156 153 162 156 147 119 105 79 70 52 357 333 328 336 339 335 327 321 317 314 311 318 320 320 318 312 312 306 304 304 308 314 304 304 310 310 284
62 312 11 321 319 245 296 252 164 169 162 156 160 157 160 165 157 135 119 92 68 28 348 342 341 341 336 333 330 327 328 323 318 304 315 315 319 318 319 314 310 308 304 309 311 318 322 310 308
249 33 330 315 326 307 1 297 185 167 179 183 170 174 170 160 134 113 109 81 61 45 26 8 355 351 345 339 335 331 331 323 314 319 321 325 322 317 315 316 317 314 313 308 303 305 309 306 305
50 353 317 313 292 312 184 246 112 168 197 193 183 176 164 147 131 110 101 94 85 75 65 40 15 3 358 356 355 353 346 339 337 331 334 333 333 333 328 320 318 315 310 305 298 295 291 289 290
87 275 257 275 273 251 130 240 182 180 217 192 177 178 155 132 119 108 103 86 59 51 38 16 1 356 347 343 346 347 347 348 347 347 348 345 345 343 339 333 327 321 315 309 302 288 278 273 275
264 285 299 233 215 288 95 261 285 84 56 185 170 169 151 139 131 123 120 97 13 354 348 335 328 330 333 342 348 351 350 347 346 344 341 339 338 336 335 333 332 329 322 314 306 299 292 281 267
4 339 300 281 310 334 155 244 98 72 99 112 144 151 143 131 126 135 197 296 308 314 310 320 316 325 332 340 342 341 339 339 338 335 333 332 329 326 325 324 322 320 318 316 311 304 296 287 278
129 217 62 288 204 261 243 220 140 164 165 167 161 162 160 168 172 191 255 272 265 262 269 268 282 301 312 317 324 328 329 331 329 327 323 318 316 314 314 313 313 312 311 310 306 301 297 289 279
272 78 194 205 256 254 224 242 271 191 189 187 178 172 141 77 24 311 284 279 271 264 265 264 273 288 302 315 322 322 323 322 320 318 316 314 313 313 312 312 311 312 312 311 308 304 297 289 285
152 212 225 302 282 289 305 293 47 76 187 206 208 186 180 315 321 313 290 277 264 260 260 263 276 291 304 317 321 321 320 320 318 316 313 310 310 310 308 308 308 311 312 312 308 304 301 294 285
300 250 234 230 185 238 282 277 79 60 54 351 263 199 261 297 309 307 295 281 263 258 258 270 287 297 305 314 318 319 318 316 313 310 308 308 308 307 308 307 307 307 309 311 310 307 302 296 293